Location: Cerro Villa Heights
(33.8267°N, 117.8042°W)
Time: 01:51:28
(UTC+00:00)

Cosmos 1484 Rocket - Pass Details

Date: 05 August 2024
Orbit: 474 x 516 km, 97.6° (Epoch: 08 September)

Event Time Altitude Azimuth Distance (km) Brightness Sun altitude
Rises 12:24:10 0° 10° (N) 2,529 6.8 -8.8°
Reaches altitude 10° 12:26:14 10° 9° (N) 1,646 5.8 -8.5°
Maximum altitude 12:29:45 79° 283° (WNW) 489 2.5 -7.8°
Drops below altitude 10° 12:33:16 10° 196° (SSW) 1,641 4.9 -7.2°
Sets 12:35:19 0° 195° (SSW) 2,520 5.8 -6.8°
